timestamp,wind_dir_avg,wind_spd_avg,wind_spd_max_dir,wind_spd_gust,battery_voltage,lat,long
2023-12-11 00:04:00+00:00,240.0,8.51,241.0,10.5,12.33,47.59359,-54.27349
2023-12-11 00:14:00+00:00,253.0,10.39,253.0,11.77,12.33,47.59359,-54.27349
2023-12-11 00:24:00+00:00,258.0,7.72,257.0,8.97,12.33,47.59359,-54.27349
2023-12-11 00:34:00+00:00,254.0,8.6,252.0,10.79,12.33,47.59359,-54.27349
2023-12-11 00:44:00+00:00,253.0,7.29,261.0,9.8,12.33,47.59359,-54.27349
2023-12-11 00:54:00+00:00,256.0,7.73,258.0,10.19,12.33,47.59359,-54.27349
2023-12-11 01:04:00+00:00,251.0,5.44,260.0,8.57,12.33,47.59359,-54.27349
2023-12-11 01:14:00+00:00,238.0,4.94,232.0,5.68,12.33,47.59359,-54.27349
2023-12-11 01:24:00+00:00,225.0,5.36,235.0,7.34,12.33,47.59359,-54.27349
2023-12-11 01:34:00+00:00,237.0,7.37,243.0,10.3,12.33,47.59359,-54.27349
2023-12-11 01:44:00+00:00,219.0,7.11,223.0,8.7,12.33,47.59359,-54.27349
2023-12-11 01:54:00+00:00,234.0,9.29,241.0,11.74,12.33,47.59359,-54.27349
2023-12-11 02:04:00+00:00,235.0,8.13,243.0,10.99,12.33,47.59359,-54.27349
2023-12-11 02:14:00+00:00,217.0,7.57,228.0,10.42,12.33,47.59359,-54.27349
2023-12-11 02:24:00+00:00,227.0,10.83,229.0,12.13,12.33,47.59359,-54.27349
2023-12-11 02:34:00+00:00,222.0,10.15,228.0,12.84,12.33,47.59359,-54.27349
2023-12-11 02:44:00+00:00,234.0,10.22,237.0,12.26,12.33,47.59359,-54.27349
2023-12-11 02:54:00+00:00,237.0,9.94,244.0,11.34,12.33,47.59359,-54.27349
2023-12-11 03:04:00+00:00,236.0,9.23,240.0,10.62,12.33,47.59359,-54.27349
2023-12-11 03:14:00+00:00,221.0,10.05,219.0,12.04,12.25,47.59359,-54.27349
2023-12-11 03:24:00+00:00,221.0,11.4,218.0,13.35,12.25,47.59359,-54.27349
2023-12-11 03:34:00+00:00,227.0,10.08,230.0,12.06,12.25,47.59359,-54.27349
2023-12-11 03:44:00+00:00,231.0,9.71,241.0,11.4,12.25,47.59359,-54.27349
2023-12-11 03:54:00+00:00,230.0,9.72,221.0,11.17,12.25,47.59359,-54.27349
2023-12-11 04:04:00+00:00,232.0,10.71,233.0,13.01,12.25,47.59359,-54.27349
2023-12-11 04:14:00+00:00,229.0,10.29,220.0,12.63,12.25,47.59359,-54.27349
2023-12-11 04:24:00+00:00,228.0,9.59,220.0,10.89,12.25,47.59359,-54.27349
2023-12-11 04:34:00+00:00,219.0,12.39,231.0,14.44,12.25,47.59359,-54.27349
2023-12-11 04:44:00+00:00,230.0,9.67,227.0,11.83,12.25,47.59359,-54.27349
2023-12-11 04:54:00+00:00,225.0,11.37,222.0,13.2,12.25,47.59359,-54.27349
2023-12-11 05:04:00+00:00,223.0,10.86,225.0,12.34,12.25,47.59359,-54.27349
2023-12-11 05:14:00+00:00,230.0,9.41,235.0,10.36,12.25,47.59359,-54.27349
2023-12-11 05:24:00+00:00,219.0,11.9,220.0,14.12,12.25,47.59359,-54.27349
2023-12-11 05:34:00+00:00,217.0,12.24,217.0,13.95,12.25,47.59359,-54.27349
2023-12-11 05:44:00+00:00,213.0,13.25,214.0,15.34,12.25,47.59359,-54.27349
2023-12-11 05:54:00+00:00,217.0,11.46,213.0,13.51,12.25,47.59359,-54.27349
2023-12-11 06:04:00+00:00,220.0,9.66,222.0,11.71,12.25,47.59359,-54.27349
2023-12-11 06:14:00+00:00,214.0,11.08,217.0,13.22,12.25,47.59359,-54.27349
2023-12-11 06:24:00+00:00,216.0,9.34,221.0,11.76,12.25,47.59359,-54.27349
2023-12-11 06:34:00+00:00,215.0,11.15,213.0,12.61,12.25,47.59359,-54.27349
2023-12-11 06:44:00+00:00,216.0,10.59,215.0,12.09,12.25,47.59359,-54.27349
2023-12-11 06:54:00+00:00,212.0,9.98,216.0,11.9,12.25,47.59359,-54.27349
2023-12-11 07:04:00+00:00,203.0,10.28,209.0,11.64,12.25,47.59359,-54.27349
2023-12-11 07:14:00+00:00,195.0,8.69,201.0,9.34,12.17,47.59359,-54.27349
2023-12-11 07:24:00+00:00,196.0,8.1,200.0,9.11,12.17,47.59359,-54.27349
2023-12-11 07:34:00+00:00,194.0,8.03,195.0,9.06,12.17,47.59359,-54.27349
2023-12-11 07:44:00+00:00,193.0,9.07,194.0,9.8,12.17,47.59359,-54.27349
2023-12-11 07:54:00+00:00,192.0,8.42,202.0,9.5,12.17,47.59359,-54.27349
2023-12-11 08:04:00+00:00,189.0,7.25,193.0,8.4,12.17,47.59359,-54.27349
2023-12-11 08:14:01+00:00,199.0,9.54,204.0,11.75,12.17,47.59359,-54.27349
2023-12-11 08:24:01+00:00,212.0,10.35,214.0,11.87,12.17,47.59359,-54.27349
2023-12-11 08:34:01+00:00,216.0,10.6,213.0,11.57,12.17,47.59359,-54.27349
2023-12-11 08:44:01+00:00,197.0,8.45,197.0,9.5,12.17,47.59359,-54.27349
2023-12-11 08:54:01+00:00,201.0,9.55,200.0,11.69,12.17,47.59359,-54.27349
2023-12-11 09:04:01+00:00,202.0,10.64,205.0,12.42,12.17,47.59359,-54.27349
2023-12-11 09:14:00+00:00,198.0,11.78,203.0,13.38,12.17,47.59359,-54.27349
2023-12-11 09:24:00+00:00,195.0,11.98,198.0,13.69,12.17,47.59359,-54.27349
2023-12-11 09:34:00+00:00,200.0,12.26,199.0,13.68,12.17,47.59359,-54.27349
2023-12-11 09:44:00+00:00,201.0,11.35,200.0,13.14,12.17,47.59359,-54.27349
2023-12-11 09:54:00+00:00,211.0,9.84,212.0,11.34,12.17,47.59359,-54.27349
2023-12-11 10:04:00+00:00,211.0,11.19,212.0,12.53,12.17,47.59359,-54.27349
2023-12-11 10:14:00+00:00,212.0,12.15,215.0,13.84,12.17,47.59359,-54.27349
2023-12-11 10:24:00+00:00,210.0,11.65,206.0,13.13,12.17,47.59359,-54.27349
2023-12-11 10:34:00+00:00,218.0,11.2,211.0,12.69,12.17,47.59359,-54.27349
2023-12-11 10:44:00+00:00,214.0,10.47,213.0,13.02,12.17,47.59359,-54.27349
2023-12-11 10:54:00+00:00,210.0,10.43,202.0,12.13,12.17,47.59359,-54.27349
2023-12-11 11:04:00+00:00,208.0,11.85,219.0,12.9,12.17,47.59359,-54.27349
2023-12-11 11:14:00+00:00,214.0,11.02,207.0,12.63,12.17,47.59359,-54.27349
2023-12-11 11:24:00+00:00,214.0,12.58,210.0,14.4,12.17,47.59359,-54.27349
2023-12-11 11:34:00+00:00,210.0,12.93,214.0,14.28,12.17,47.59359,-54.27349
2023-12-11 11:44:00+00:00,216.0,12.1,217.0,13.57,12.17,47.59359,-54.27349
2023-12-11 11:54:00+00:00,216.0,11.55,216.0,12.96,12.17,47.59359,-54.27349
2023-12-11 12:04:00+00:00,216.0,12.12,220.0,13.87,12.17,47.59359,-54.27349
2023-12-11 12:14:00+00:00,217.0,13.1,215.0,14.45,12.17,47.59359,-54.27349
2023-12-11 12:24:00+00:00,217.0,13.37,225.0,16.62,12.17,47.59359,-54.27349
2023-12-11 12:34:00+00:00,214.0,14.94,215.0,17.4,12.17,47.59359,-54.27349
2023-12-11 12:44:00+00:00,214.0,13.33,218.0,15.34,12.17,47.59359,-54.27349
2023-12-11 12:54:00+00:00,214.0,13.96,209.0,17.1,12.17,47.59359,-54.27349
2023-12-11 13:04:00+00:00,213.0,13.36,208.0,15.6,12.17,47.59359,-54.27349
2023-12-11 13:14:00+00:00,214.0,13.25,216.0,16.35,12.17,47.59359,-54.27349
2023-12-11 13:24:00+00:00,218.0,11.31,219.0,12.65,12.17,47.59359,-54.27349
2023-12-11 13:34:00+00:00,216.0,11.23,212.0,12.51,12.17,47.59359,-54.27349
2023-12-11 13:44:00+00:00,220.0,9.19,217.0,10.99,12.17,47.59359,-54.27349
2023-12-11 13:54:00+00:00,216.0,9.91,214.0,11.84,12.17,47.59359,-54.27349
2023-12-11 14:04:00+00:00,215.0,11.19,212.0,12.57,12.17,47.59359,-54.27349
2023-12-11 14:14:00+00:00,215.0,11.02,216.0,12.53,12.17,47.59359,-54.27349
2023-12-11 14:24:00+00:00,214.0,10.05,212.0,12.33,12.17,47.59359,-54.27349
2023-12-11 14:34:00+00:00,215.0,9.8,222.0,11.43,12.17,47.59359,-54.27349
2023-12-11 14:44:00+00:00,215.0,11.03,213.0,12.86,12.17,47.59359,-54.27349
2023-12-11 14:54:00+00:00,216.0,11.24,214.0,13.12,12.17,47.59359,-54.27349
2023-12-11 15:04:00+00:00,215.0,11.73,218.0,14.58,12.17,47.59359,-54.27349
2023-12-11 15:14:00+00:00,217.0,10.33,215.0,11.75,12.17,47.59359,-54.27349
2023-12-11 15:24:00+00:00,216.0,10.52,217.0,12.18,12.17,47.59359,-54.27349
2023-12-11 15:34:00+00:00,210.0,9.33,214.0,10.86,12.17,47.59359,-54.27349
2023-12-11 15:44:00+00:00,205.0,9.5,205.0,11.02,12.17,47.59359,-54.27349
2023-12-11 15:54:00+00:00,201.0,7.64,206.0,8.5,12.17,47.59359,-54.27349
2023-12-11 16:04:00+00:00,203.0,8.45,205.0,10.03,12.17,47.59359,-54.27349
2023-12-11 16:14:00+00:00,200.0,9.2,204.0,10.64,12.25,47.59359,-54.27349
2023-12-11 16:24:00+00:00,210.0,9.89,209.0,11.9,12.25,47.59359,-54.27349
2023-12-11 16:34:00+00:00,208.0,10.45,215.0,11.86,12.25,47.59359,-54.27349
2023-12-11 16:44:00+00:00,210.0,10.3,212.0,12.64,12.25,47.59359,-54.27349
2023-12-11 16:54:00+00:00,212.0,10.65,202.0,13.35,12.25,47.59359,-54.27349
2023-12-11 17:04:00+00:00,211.0,11.18,212.0,12.62,12.25,47.59359,-54.27349
2023-12-11 17:14:00+00:00,207.0,11.43,216.0,14.23,12.25,47.59359,-54.27349
2023-12-11 17:24:00+00:00,209.0,12.79,218.0,16.69,12.25,47.59359,-54.27349
2023-12-11 17:34:00+00:00,208.0,11.52,207.0,13.78,12.25,47.59359,-54.27349
2023-12-11 17:44:00+00:00,206.0,12.06,209.0,13.74,12.25,47.59359,-54.27349
2023-12-11 17:54:00+00:00,202.0,11.61,202.0,13.38,12.25,47.59359,-54.27349
2023-12-11 18:04:00+00:00,202.0,12.02,201.0,13.81,12.25,47.59359,-54.27349
2023-12-11 18:14:00+00:00,202.0,12.0,207.0,14.37,12.41,47.59359,-54.27349
2023-12-11 18:24:00+00:00,201.0,11.97,210.0,14.7,12.41,47.59359,-54.27349
2023-12-11 18:34:00+00:00,199.0,11.76,199.0,13.96,12.41,47.59359,-54.27349
2023-12-11 18:44:00+00:00,198.0,11.09,198.0,13.22,12.41,47.59359,-54.27349
2023-12-11 18:54:00+00:00,200.0,10.59,201.0,11.97,12.41,47.59359,-54.27349
2023-12-11 19:04:00+00:00,196.0,11.54,196.0,13.05,12.41,47.59359,-54.27349
2023-12-11 19:14:00+00:00,203.0,11.97,206.0,14.6,12.17,47.59359,-54.27349
2023-12-11 19:24:00+00:00,207.0,11.79,209.0,13.78,12.17,47.59359,-54.27349
2023-12-11 19:34:00+00:00,205.0,12.08,214.0,13.53,12.17,47.59359,-54.27349
2023-12-11 19:44:00+00:00,202.0,11.09,202.0,12.65,12.17,47.59359,-54.27349
2023-12-11 19:54:00+00:00,202.0,10.95,210.0,13.17,12.17,47.59359,-54.27349
2023-12-11 20:04:00+00:00,205.0,10.34,208.0,12.22,12.17,47.59359,-54.27349
2023-12-11 20:14:00+00:00,205.0,10.19,208.0,11.37,12.17,47.59359,-54.27349
2023-12-11 20:24:00+00:00,203.0,10.62,207.0,11.86,12.17,47.59359,-54.27349
2023-12-11 20:34:00+00:00,207.0,9.95,208.0,11.12,12.17,47.59359,-54.27349
2023-12-11 20:44:00+00:00,207.0,10.03,204.0,11.44,12.17,47.59359,-54.27349
2023-12-11 20:54:00+00:00,209.0,9.91,207.0,11.01,12.17,47.59359,-54.27349
2023-12-11 21:04:00+00:00,210.0,10.67,216.0,12.51,12.17,47.59359,-54.27349
2023-12-11 21:14:00+00:00,209.0,11.81,215.0,14.54,12.17,47.59359,-54.27349
2023-12-11 21:24:00+00:00,199.0,9.77,212.0,11.65,12.17,47.59359,-54.27349
2023-12-11 21:34:00+00:00,205.0,11.64,214.0,13.48,12.17,47.59359,-54.27349
2023-12-11 21:44:00+00:00,208.0,11.56,218.0,13.52,12.17,47.59359,-54.27349
2023-12-11 21:54:00+00:00,201.0,9.25,217.0,12.3,12.17,47.59359,-54.27349
2023-12-11 22:04:00+00:00,199.0,9.77,221.0,11.9,12.17,47.59359,-54.27349
2023-12-11 22:14:00+00:00,197.0,7.73,220.0,10.1,12.09,47.59359,-54.27349
2023-12-11 22:24:00+00:00,196.0,7.49,206.0,9.01,12.09,47.59359,-54.27349
2023-12-11 22:34:00+00:00,198.0,9.23,210.0,11.7,12.09,47.59359,-54.27349
2023-12-11 22:44:00+00:00,197.0,9.48,212.0,11.98,12.09,47.59359,-54.27349
2023-12-11 22:54:00+00:00,216.0,12.17,214.0,14.07,12.09,47.59359,-54.27349
2023-12-11 23:04:00+00:00,215.0,10.82,218.0,13.05,12.09,47.59359,-54.27349
2023-12-11 23:14:00+00:00,227.0,10.87,231.0,12.74,12.09,47.59359,-54.27349
2023-12-11 23:24:00+00:00,227.0,10.36,231.0,13.75,12.09,47.59359,-54.27349
2023-12-11 23:34:00+00:00,215.0,8.74,226.0,10.85,12.09,47.59359,-54.27349
2023-12-11 23:44:00+00:00,209.0,8.94,215.0,10.52,12.09,47.59359,-54.27349
2023-12-11 23:54:00+00:00,210.0,8.27,227.0,10.33,12.09,47.59359,-54.27349
